Home   Weather   Shreveport   Past weeks

Flag for USA Past Weather in Shreveport, Louisiana, USA — Yesterday and Last 2 Weeks

Now
63 °F

Passing clouds.


Feels Like: 63 °F
Forecast: 63 / 85 °F
Wind: 7 mph from Southeast

Location: Shreveport Regional Airport

Current Time: Apr 28, 2017 at 1:30:07 am

Latest Report: Apr 28, 2017 at 12:56 am


Visibility: 10 mi

Pressure: 29.69 "Hg

Humidity: 81%

Dew Point: 57 °F

Location of ShreveportLocation

Past Weather in Shreveport — Graph

°F

Shreveport Temperature Yesterday

Maximum temperature yesterday: 74 °F (at 4:56 pm)
Minimum temperature yesterday: 45 °F (at 6:56 am)
Average temperature yesterday: 61 °F

High & Low Weather Summary for the Past Weeks

 TemperatureHumidityPressure
High86 °F (Apr 16, 3:56 pm)100% (Apr 14, 7:00 am)30.22 "Hg (Apr 14, 7:00 am)
Low45 °F (Apr 27, 6:56 am)29% (Apr 24, 2:56 pm)29.43 "Hg (Apr 26, 3:56 pm)
Average70 °F75%29.94 "Hg
* Reported Apr 12 11:56 pm — Apr 27 11:56 pm, Shreveport, Weather by CustomWeather, © 2017

Note: Actual official high and low records may vary slightly from our data, if they occured in-between our weather recording intervals... More about our weather records

Advertising

Shreveport Weather History for the Previous 24 Hours

Scroll right to see more
 ConditionsComfort  
Time TempWeatherWind HumidityBarometerVisibility
11:56 pm
Thu, Apr 27
63 °FPassing clouds.6 mph81%29.69 "Hg10 mi
10:56 pm65 °FPassing clouds.8 mph73%29.70 "Hg10 mi
9:56 pm65 °FPassing clouds.5 mph73%29.69 "Hg10 mi
8:56 pm66 °FPassing clouds.6 mph68%29.67 "Hg10 mi
7:56 pm68 °FPassing clouds.6 mph61%29.68 "Hg10 mi
6:56 pm73 °FPassing clouds.12 mph51%29.69 "Hg10 mi
5:56 pm74 °FPassing clouds.10 mph50%29.69 "Hg10 mi
4:56 pm74 °FPassing clouds.9 mph46%29.71 "Hg10 mi
3:56 pm73 °FPassing clouds.7 mph50%29.75 "Hg10 mi
2:56 pm71 °FSunny.9 mph53%29.78 "Hg10 mi
1:56 pm70 °FSunny.9 mph51%29.81 "Hg10 mi
12:56 pm69 °FSunny.3 mph49%29.82 "Hg10 mi
11:56 am66 °FSunny.6 mph54%29.85 "Hg10 mi
10:56 am63 °FSunny.9 mph58%29.84 "Hg10 mi
9:56 am61 °FSunny.10 mph58%29.82 "Hg10 mi
8:56 am59 °FPassing clouds.6 mph64%29.84 "Hg10 mi
7:56 am53 °FPassing clouds.3 mph89%29.83 "Hg10 mi
6:56 am45 °FPassing clouds.No wind100%29.81 "Hg10 mi
5:56 am46 °FClear.No wind93%29.78 "Hg10 mi
4:56 am49 °FClear.3 mph93%29.77 "Hg10 mi
3:56 am50 °FClear.5 mph89%29.76 "Hg10 mi
2:56 am51 °FClear.7 mph86%29.76 "Hg10 mi
1:56 am53 °FPassing clouds.9 mph83%29.77 "Hg10 mi
Weather by CustomWeather, © 2017

See weather overviewHow to use our weather pages